| time (UTC) | temp F | wind direction | speed MPH | gust MPH | rain 1hr in | rain 24hr in | rain mn in | humidity % | barometer mb |
| 20260507224950 | 64 | 22 | 17.0 | 23.0 | 0.02 | 0.03 | 0.03 | 94 | 1018.0 |
| 20260507224141 | 64 | 19 | 15.0 | 21.0 | 0.02 | 0.03 | 0.03 | 94 | 1018.1 |
| 20260507221942 | 65 | 19 | 10.0 | 21.0 | 0.00 | 0.02 | 0.02 | 92 | 1018.2 |
| 20260507220442 | 65 | 25 | 15.0 | 17.0 | 0.00 | 0.02 | 0.02 | 92 | 1018.3 |
| 20260507214939 | 65 | 14 | 14.0 | 18.0 | 0.00 | 0.02 | 0.02 | 93 | 1018.3 |
| 20260507213438 | 65 | 42 | 15.0 | 20.0 | 0.00 | 0.02 | 0.02 | 93 | 1018.5 |
| 20260507211933 | 65 | 44 | 15.0 | 19.0 | 0.00 | 0.02 | 0.02 | 93 | 1018.5 |
| 20260507210434 | 66 | 44 | 6.0 | 15.0 | 0.00 | 0.02 | 0.02 | 92 | 1018.7 |
| 20260507204930 | 66 | 15 | 6.0 | 14.0 | 0.00 | 0.02 | 0.02 | 91 | 1018.7 |
| 20260507204118 | 65 | 20 | 11.0 | 17.0 | 0.00 | 0.02 | 0.02 | 91 | 1018.5 |
| 20260507201925 | 65 | 35 | 13.0 | 16.0 | 0.00 | 0.03 | 0.02 | 92 | 1018.3 |
| 20260507200420 | 65 | 31 | 12.0 | 19.0 | 0.00 | 0.04 | 0.02 | 92 | 1018.7 |
| 20260507194921 | 65 | 15 | 12.0 | 18.0 | 0.00 | 0.04 | 0.02 | 92 | 1018.4 |
| 20260507194120 | 65 | 29 | 11.0 | 16.0 | 0.00 | 0.04 | 0.02 | 92 | 1018.3 |
| 20260507191913 | 65 | 5 | 12.0 | 17.0 | 0.00 | 0.05 | 0.02 | 92 | 1018.6 |
| 20260507190414 | 65 | 21 | 12.0 | 16.0 | 0.00 | 0.05 | 0.02 | 93 | 1018.5 |
| 20260507184909 | 65 | 34 | 13.0 | 16.0 | 0.00 | 0.05 | 0.02 | 93 | 1018.4 |
| 20260507183411 | 65 | 26 | 12.0 | 17.0 | 0.00 | 0.05 | 0.02 | 93 | 1018.6 |
| 20260507183258 | 65 | 40 | 11.0 | 17.0 | 0.00 | 0.05 | 0.02 | 93 | 1018.5 |
| 20260507181109 | 64 | 0 | 4.0 | 12.0 | 0.00 | 0.05 | 0.02 | 93 | 1018.8 |
| 20260507174901 | 64 | 9 | 7.0 | 12.0 | 0.00 | 0.05 | 0.02 | 94 | 1018.7 |
| 20260507173358 | 64 | 350 | 7.0 | 11.0 | 0.00 | 0.05 | 0.02 | 94 | 1019.2 |
| 20260507171853 | 64 | 9 | 3.0 | 9.0 | 0.00 | 0.05 | 0.02 | 94 | 1019.0 |
| 20260507170353 | 64 | 340 | 4.0 | 8.0 | 0.00 | 0.05 | 0.02 | 94 | 1019.2 |
| 20260507164848 | 64 | 345 | 3.0 | 9.0 | 0.00 | 0.05 | 0.02 | 94 | 1019.3 |
| 20260507163349 | 64 | 348 | 3.0 | 9.0 | 0.00 | 0.05 | 0.02 | 94 | 1019.2 |
| 20260507161845 | 64 | 350 | 4.0 | 9.0 | 0.00 | 0.05 | 0.02 | 94 | 1019.3 |
| 20260507160341 | 64 | 18 | 2.0 | 8.0 | 0.00 | 0.05 | 0.02 | 94 | 1019.2 |
| 20260507154836 | 64 | 355 | 4.0 | 11.0 | 0.00 | 0.05 | 0.02 | 94 | 1019.5 |
| 20260507154032 | 64 | 337 | 6.0 | 11.0 | 0.00 | 0.05 | 0.02 | 94 | 1019.8 |
| 20260507151831 | 64 | 335 | 4.0 | 10.0 | 0.00 | 0.05 | 0.02 | 94 | 1020.0 |
| 20260507150334 | 64 | 19 | 4.0 | 13.0 | 0.00 | 0.05 | 0.02 | 94 | 1020.2 |
| 20260507144828 | 64 | 336 | 7.0 | 14.0 | 0.00 | 0.05 | 0.02 | 94 | 1020.4 |
| 20260507143324 | 63 | 342 | 6.0 | 11.0 | 0.01 | 0.05 | 0.02 | 95 | 1020.7 |
| 20260507141824 | 63 | 350 | 5.0 | 11.0 | 0.01 | 0.05 | 0.02 | 95 | 1020.9 |
| 20260507140319 | 63 | 5 | 1.0 | 3.0 | 0.01 | 0.05 | 0.02 | 95 | 1020.9 |
| 20260507134821 | 62 | 304 | 1.0 | 4.0 | 0.01 | 0.05 | 0.02 | 95 | 1021.1 |
| 20260507133312 | 63 | 227 | 1.0 | 3.0 | 0.00 | 0.04 | 0.01 | 95 | 1021.3 |
| 20260507131807 | 63 | 234 | 3.0 | 4.0 | 0.01 | 0.04 | 0.01 | 95 | 1021.4 |
| 20260507130308 | 63 | 322 | 3.0 | 8.0 | 0.01 | 0.04 | 0.01 | 95 | 1021.5 |
| 20260507125501 | 63 | 0 | 2.0 | 9.0 | 0.01 | 0.04 | 0.01 | 94 | 1021.5 |
| 20260507123956 | 63 | 355 | 4.0 | 12.0 | 0.01 | 0.04 | 0.01 | 94 | 1021.7 |
| 20260507121759 | 62 | 336 | 6.0 | 16.0 | 0.00 | 0.03 | 0.00 | 94 | 1021.9 |
| 20260507120256 | 63 | 323 | 10.0 | 15.0 | 0.00 | 0.03 | 0.00 | 94 | 1022.2 |
| 20260507114756 | 63 | 350 | 8.0 | 18.0 | 0.00 | 0.03 | 0.03 | 93 | 1022.0 |
| 20260507113251 | 65 | 49 | 8.0 | 11.0 | 0.00 | 0.03 | 0.03 | 94 | 1022.0 |
| 20260507111746 | 64 | 22 | 6.0 | 10.0 | 0.00 | 0.03 | 0.03 | 94 | 1022.2 |
| 20260507111637 | 62 | 60 | 2.0 | 4.0 | 0.00 | 0.03 | 0.03 | 94 | 1022.3 |
| 20260507105441 | 62 | 337 | 2.0 | 5.0 | 0.00 | 0.03 | 0.03 | 94 | 1022.4 |
| 20260507103944 | 62 | 277 | 1.0 | 4.0 | 0.00 | 0.03 | 0.03 | 94 | 1022.5 |
| 20260507101739 | 62 | 298 | 3.0 | 7.0 | 0.00 | 0.03 | 0.03 | 94 | 1022.4 |
| 20260507100240 | 62 | 203 | 2.0 | 4.0 | 0.00 | 0.03 | 0.03 | 93 | 1022.5 |
| 20260507100118 | 62 | 252 | 2.0 | 4.0 | 0.00 | 0.03 | 0.03 | 92 | 1022.6 |
| 20260507093231 | 63 | 325 | 1.0 | 4.0 | 0.00 | 0.03 | 0.03 | 92 | 1022.6 |
| 20260507091726 | 64 | 346 | 0.0 | 3.0 | 0.00 | 0.03 | 0.03 | 92 | 1022.7 |
| 20260507090222 | 64 | 346 | 2.0 | 4.0 | 0.00 | 0.03 | 0.03 | 92 | 1022.8 |
| 20260507084723 | 64 | 323 | 2.0 | 7.0 | 0.00 | 0.03 | 0.03 | 91 | 1022.8 |
| 20260507083914 | 65 | 0 | 2.0 | 10.0 | 0.00 | 0.03 | 0.03 | 91 | 1022.8 |
| 20260507081715 | 65 | 315 | 4.0 | 9.0 | 0.00 | 0.03 | 0.03 | 90 | 1022.9 |
| 20260507080215 | 65 | 42 | 7.0 | 11.0 | 0.00 | 0.03 | 0.03 | 90 | 1022.9 |
| 20260507074710 | 65 | 17 | 8.0 | 11.0 | 0.00 | 0.05 | 0.03 | 90 | 1022.9 |
| 20260507073210 | 65 | 23 | 10.0 | 12.0 | 0.00 | 0.05 | 0.03 | 89 | 1022.8 |
| 20260507071706 | 65 | 15 | 9.0 | 12.0 | 0.00 | 0.05 | 0.03 | 90 | 1022.8 |
| 20260507070203 | 65 | 42 | 8.0 | 12.0 | 0.00 | 0.05 | 0.03 | 89 | 1022.7 |
| 20260507064657 | 65 | 30 | 9.0 | 13.0 | 0.00 | 0.05 | 0.03 | 89 | 1022.6 |
| 20260507063152 | 65 | 26 | 8.0 | 12.0 | 0.00 | 0.05 | 0.03 | 89 | 1022.5 |
| 20260507063046 | 65 | 48 | 6.0 | 10.0 | 0.00 | 0.05 | 0.03 | 88 | 1022.7 |
| 20260507060838 | 65 | 24 | 5.0 | 9.0 | 0.00 | 0.05 | 0.03 | 88 | 1022.7 |
| 20260507054651 | 65 | 11 | 5.0 | 9.0 | 0.00 | 0.05 | 0.03 | 88 | 1022.8 |
| 20260507053836 | 65 | 329 | 4.0 | 10.0 | 0.00 | 0.05 | 0.03 | 87 | 1022.9 |
| 20260507051641 | 65 | 23 | 5.0 | 12.0 | 0.00 | 0.05 | 0.03 | 87 | 1022.8 |
| 20260507050141 | 65 | 36 | 9.0 | 16.0 | 0.00 | 0.05 | 0.03 | 87 | 1022.8 |
| 20260507044637 | 65 | 24 | 7.0 | 11.0 | 0.00 | 0.05 | 0.03 | 86 | 1023.0 |
| 20260507043137 | 65 | 49 | 8.0 | 14.0 | 0.00 | 0.05 | 0.03 | 85 | 1023.0 |
| 20260507041633 | 66 | 30 | 11.0 | 14.0 | 0.00 | 0.05 | 0.03 | 86 | 1023.2 |
| 20260507040129 | 66 | 55 | 9.0 | 12.0 | 0.00 | 0.05 | 0.03 | 85 | 1023.4 |
| 20260507034629 | 66 | 42 | 11.0 | 15.0 | 0.00 | 0.05 | 0.03 | 84 | 1023.5 |
| 20260507033125 | 66 | 28 | 12.0 | 15.0 | 0.00 | 0.05 | 0.03 | 83 | 1023.5 |
| 20260507031625 | 66 | 45 | 11.0 | 14.0 | 0.00 | 0.05 | 0.03 | 83 | 1023.7 |
| 20260507030816 | 66 | 46 | 11.0 | 15.0 | 0.00 | 0.05 | 0.03 | 84 | 1023.9 |
| 20260507024617 | 66 | 49 | 11.0 | 15.0 | 0.00 | 0.05 | 0.03 | 84 | 1023.9 |
| 20260507023704 | 67 | 20 | 13.0 | 16.0 | 0.00 | 0.05 | 0.03 | 84 | 1023.9 |
| 20260507023122 | 67 | 11 | 12.0 | 15.0 | 0.00 | 0.05 | 0.03 | 84 | 1023.8 |
| 20260507020104 | 68 | 48 | 13.0 | 15.0 | 0.00 | 0.05 | 0.03 | 84 | 1023.9 |
| 20260507014559 | 68 | 26 | 9.0 | 15.0 | 0.00 | 0.05 | 0.03 | 85 | 1024.3 |
| 20260507013054 | 67 | 36 | 12.0 | 14.0 | 0.00 | 0.05 | 0.03 | 85 | 1024.3 |
| 20260507011555 | 68 | 28 | 12.0 | 15.0 | 0.00 | 0.05 | 0.03 | 85 | 1024.4 |
| 20260507010051 | 67 | 24 | 11.0 | 15.0 | 0.00 | 0.05 | 0.03 | 86 | 1024.5 |
| 20260507004552 | 67 | 23 | 12.0 | 17.0 | 0.00 | 0.05 | 0.03 | 85 | 1024.7 |
| 20260507003047 | 67 | 5 | 9.0 | 18.0 | 0.00 | 0.05 | 0.03 | 86 | 1025.0 |
| 20260507001548 | 67 | 18 | 16.0 | 20.0 | 0.00 | 0.05 | 0.03 | 86 | 1024.8 |
| 20260507000043 | 67 | 28 | 12.0 | 18.0 | 0.00 | 0.05 | 0.03 | 88 | 1025.1 |
| 20260506234538 | 67 | 28 | 13.0 | 17.0 | 0.00 | 0.05 | 0.03 | 88 | 1025.3 |
| 20260506233039 | 66 | 53 | 13.0 | 17.0 | 0.00 | 0.05 | 0.03 | 89 | 1025.4 |
| 20260506232228 | 66 | 33 | 13.0 | 15.0 | 0.00 | 0.05 | 0.03 | 91 | 1025.4 |
| 20260506230730 | 65 | 34 | 5.0 | 12.0 | 0.00 | 0.05 | 0.03 | 92 | 1025.5 |